Wetbulb
28.26 29.52 29.36 30.02 29.79 29.51 29.19 31.77 26.39 28.55 27.53 33.77 34.98 32.89 33.64 34.79 34.73 34.83 35.35 36.46 37.74 38.60 38.93 39.38 39.60 39.99 39.17 37.55 35.57 33.30 31.64 30.78 30.02 29.07 28.31 27.79 27.46 27.17 27.20 26.94 26.75 26.82 27.03 27.52
23.25 30.15 29.27 28.20 30.09 30.63 30.86 31.17 30.74 31.45 30.37 37.51 38.55 38.42 34.49 33.60 33.76 34.39 35.09 36.33 37.82 38.81 39.25 39.25 39.97 40.47 40.28 38.86 35.85 32.44 31.05 30.78 30.69 29.13 28.46 27.90 27.19 26.51 26.14 25.89 25.89 26.22 26.06 26.27
22.48 26.24 26.27 21.99 26.29 28.53 28.66 29.60 30.70 27.15 32.49 36.68 34.51 34.72 34.68 34.99 34.80 35.01 35.63 36.68 37.51 38.80 39.59 40.41 40.69 41.15 39.79 39.09 35.15 32.06 30.82 30.61 29.81 28.98 28.40 27.88 27.04 26.13 24.74 24.50 24.87 24.86 25.18 25.85
22.26 23.39 14.38 26.28 30.80 31.37 29.88 30.74 32.57 32.55 33.71 35.51 35.76 35.84 35.79 35.46 35.22 35.66 36.30 37.52 37.91 38.55 39.00 39.77 40.77 39.33 39.48 35.53 33.63 32.07 30.58 30.27 29.72 28.65 27.93 27.21 26.30 25.20 23.70 24.21 24.25 24.43 24.68 25.68
18.71 16.60 24.35 27.99 28.66 28.56 27.77 29.04 32.64 33.29 35.11 34.22 33.36 32.32 33.61 36.36 35.75 36.42 37.34 38.32 38.50 38.73 38.67 38.60 38.65 37.87 35.70 32.72 31.92 31.34 30.47 29.58 29.27 28.49 27.05 26.70 25.80 24.26 23.28 23.79 23.71 23.83 25.72 25.03
23.05 20.05 17.74 25.63 30.41 33.57 31.51 24.68 31.47 32.89 32.91 31.79 31.88 27.74 31.25 34.88 36.00 37.89 38.40 38.45 38.56 38.19 37.31 36.35 36.15 33.69 33.40 32.33 31.09 30.46 30.18 29.66 28.78 28.24 26.91 25.49 24.44 23.44 23.71 23.60 25.77 25.84 25.80 25.03
25.49 23.01 26.73 32.66 33.95 34.10 24.47 27.99 31.64 32.72 33.50 32.06 31.51 33.76 34.70 35.33 36.53 37.39 37.96 38.03 37.86 36.99 36.29 36.15 33.45 32.50 32.04 30.88 30.98 31.07 30.33 29.16 28.01 27.51 26.23 24.64 23.16 22.72 22.60 22.88 23.79 22.17 24.21 23.73
25.69 22.73 20.81 33.82 32.16 29.93 33.29 32.51 33.06 33.98 34.77 34.16 34.22 35.50 35.51 36.03 36.09 36.61 36.36 36.52 37.33 36.09 35.43 34.23 32.00 31.94 31.09 31.36 30.81 30.05 28.42 27.51 26.46 25.32 25.92 25.42 22.65 21.82 22.37 21.28 20.60 20.78 21.28 22.36
28.38 28.19 33.60 33.32 33.89 35.60 34.59 33.59 34.68 34.77 38.13 35.49 34.65 34.56 36.14 35.61 35.48 35.45 35.38 35.40 35.91 35.20 34.35 31.92 30.47 31.17 30.77 31.17 28.97 27.02 25.90 25.18 24.49 23.85 23.96 23.84 21.86 21.70 21.99 21.09 20.92 21.33 23.51 22.72
29.23 31.75 34.30 36.14 36.71 36.67 37.61 36.28 37.73 37.62 36.40 36.50 35.21 36.30 34.64 35.98 35.42 34.39 34.45 34.69 35.07 34.05 32.66 31.49 29.05 29.55 30.43 28.80 26.96 25.56 24.07 23.30 22.85 22.15 22.40 21.95 24.58 24.54 22.58 21.59 20.96 22.93 23.73 24.02
28.37 34.09 33.83 35.25 35.09 35.63 36.16 36.42 35.44 36.34 35.25 35.25 35.09 35.40 35.32 35.28 34.04 34.07 34.07 34.13 34.19 33.48 32.44 31.96 28.98 28.35 28.33 27.66 27.00 24.96 24.12 23.35 22.34 23.03 24.34 22.82 23.54 23.00 24.06 22.45 22.97 22.82 24.27 24.85
28.52 33.18 31.95 34.83 37.70 37.53 35.63 35.88 36.09 35.11 36.14 37.31 34.03 33.99 34.09 33.21 33.59 33.68 33.70 33.22 32.67 32.47 31.69 31.28 29.14 28.16 26.77 26.40 26.04 25.79 24.56 23.79 23.25 23.49 22.92 23.56 22.92 22.63 28.15 30.25 31.50 31.96 31.89 29.66
31.76 34.54 34.49 35.39 35.96 35.18 33.94 35.75 35.91 35.45 35.31 33.76 34.85 33.48 33.11 33.34 33.39 35.37 34.44 33.35 33.04 32.83 32.45 30.89 29.10 28.13 27.14 26.88 25.65 25.66 25.02 23.87 23.70 26.18 24.12 23.46 23.63 23.18 21.74 24.80 29.57 30.54 30.36 30.19
34.95 32.52 31.72 32.40 32.50 34.77 34.37 34.30 35.30 33.79 33.23 33.27 33.16 33.23 32.51 32.06 32.06 31.77 31.67 32.90 33.04 32.59 31.41 29.54 28.61 28.45 26.94 26.57 26.18 25.86 24.81 28.63 24.39 24.80 24.19 24.33 24.44 24.06 23.62 23.25 22.48 22.53 26.90 27.97
32.58 32.24 32.32 33.43 32.70 32.29 32.24 31.62 30.99 31.48 31.62 32.04 32.24 31.67 31.12 30.22 29.99 30.62 31.08 31.77 30.87 29.86 29.22 28.10 27.80 27.20 26.80 26.86 26.48 25.43 24.77 24.87 25.65 24.38 24.54 24.93 24.74 24.41 24.31 23.98 23.40 22.74 22.84 25.15
33.00 31.53 30.40 29.16 29.84 29.97 29.62 30.67 29.83 30.64 30.99 31.03 30.42 29.85 29.79 29.50 29.62 30.31 30.80 29.89 28.71 29.41 29.13 27.82 27.36 27.16 26.77 26.68 26.14 25.29 24.89 27.75 26.79 24.65 24.41 25.24 25.00 24.24 23.77 23.24 22.35 21.81 21.64 21.83
25.64 29.74 30.81 30.36 30.85 30.86 30.64 31.37 30.58 30.96 30.51 29.55 29.30 29.20 29.33 29.85 29.21 29.12 29.70 29.16 28.54 28.88 29.23 28.51 28.31 28.20 27.45 26.74 26.17 25.77 24.98 25.34 29.09 25.73 24.70 25.03 24.55 23.78 23.54 22.52 21.85 21.45 21.50 24.00
30.51 30.52 30.06 29.52 29.37 30.24 31.64 32.61 31.43 30.89 30.57 30.37 29.04 28.57 28.04 25.04 27.76 28.91 29.60 29.02 27.75 27.21 27.85 28.59 28.38 27.94 26.93 26.78 26.39 25.63 24.97 24.52 24.78 25.70 25.39 24.58 24.18 24.19 23.61 22.94 22.10 20.54 21.01 22.48
29.68 30.72 32.54 32.33 31.76 31.03 30.99 31.71 32.15 30.46 30.94 29.44 29.63 30.52 30.96 30.73 30.53 30.58 30.62 28.48 27.39 26.51 29.59 27.44 30.45 29.71 26.20 26.58 27.32 25.74 24.88 24.04 24.29 24.45 24.65 25.59 24.82 24.48 22.92 21.76 21.08 20.82 20.57 20.87
30.95 31.67 31.11 30.44 31.79 29.80 31.27 32.60 31.64 30.78 31.65 30.21 29.11 28.86 30.14 31.98 31.45 30.34 28.16 28.72 30.00 30.16 28.22 27.14 28.57 27.87 26.99 26.93 30.41 25.37 24.56 24.12 23.93 23.95 23.88 23.59 23.61 22.88 22.08 23.02 22.08 20.78 20.26 19.89
29.36 29.11 28.65 28.96 31.07 31.67 30.90 31.45 30.74 30.18 31.12 29.04 28.60 29.77 30.13 31.45 31.24 29.59 25.56 27.31 32.00 30.55 29.80 29.62 27.57 27.14 27.74 27.46 28.83 25.41 24.29 23.84 23.87 23.54 23.18 23.80 23.22 23.18 21.47 20.55 20.03 19.81 20.00 19.76
25.56 26.35 28.88 27.62 29.88 31.44 32.38 31.96 30.66 30.22 30.25 29.43 29.58 28.71 28.71 28.99 29.34 28.46 29.63 30.24 32.76 33.94 29.38 28.31 28.15 28.85 27.31 30.65 27.10 26.17 24.91 24.39 23.95 23.80 22.85 22.39 22.00 21.14 20.27 19.39 18.60 18.86 19.00 17.99
32.28 30.97 30.85 30.58 31.13 31.92 32.83 32.07 30.55 30.47 29.95 29.53 29.17 29.13 28.76 29.96 30.22 26.00 27.13 29.54 30.33 31.49 29.49 28.05 29.80 30.89 31.60 29.01 26.64 25.89 25.04 24.67 23.93 23.44 23.17 22.31 21.64 20.81 19.44 17.77 17.37 17.96 17.07 17.25
31.47 31.15 30.71 31.82 31.54 30.23 28.52 31.15 31.44 31.18 30.79 29.95 29.10 29.52 29.10 28.55 28.89 28.98 30.78 33.74 34.04 32.18 30.33 29.16 30.88 32.40 32.62 28.90 26.54 25.42 24.90 24.43 23.88 23.42 23.11 24.62 21.10 19.79 18.02 16.97 16.78 17.32 16.61 17.42
30.22 30.81 30.97 30.39 29.76 30.92 31.64 31.84 30.82 28.98 27.91 28.84 27.55 27.91 28.17 28.59 28.15 29.61 26.68 28.69 32.63 32.98 30.24 32.55 32.94 32.51 30.88 29.04 26.66 25.54 24.80 24.25 23.70 22.85 21.92 21.74 20.07 18.48 17.35 16.71 16.66 16.10 15.09 15.17
30.11 30.66 31.88 32.03 31.90 32.35 32.56 32.25 30.83 31.14 30.19 29.31 30.05 29.30 28.24 26.94 27.05 28.89 28.40 28.28 27.61 31.03 30.56 28.70 30.62 30.71 30.28 28.79 26.58 25.57 25.07 24.02 24.39 23.96 21.61 20.52 19.20 17.93 17.00 16.54 16.32 15.88 13.76 12.37
31.63 34.45 32.42 32.19 33.03 33.11 32.30 30.60 29.68 30.10 31.72 30.70 29.89 30.92 29.28 27.89 25.54 27.63 28.46 24.44 26.17 26.42 27.81 27.22 28.70 30.76 29.66 28.51 26.99 26.19 25.26 24.07 24.78 23.97 22.58 19.70 18.48 17.65 16.73 16.23 15.81 14.25 12.80 12.64
MSLP
1024.34 1023.90 1023.61 1023.06 1022.81 1022.87 1022.81 1022.09 1021.77 1017.96 1018.16 1015.39 1015.88 1015.84 1015.46 1015.39 1015.45 1015.60 1015.48 1015.54 1015.53 1015.59 1015.60 1015.75 1015.99 1016.21 1016.56 1016.85 1017.30 1017.64 1018.04 1018.28 1018.50 1018.71 1018.82 1018.90 1018.97 1018.96 1018.95 1018.85 1018.76 1018.68 1018.49 1018.17
1024.37 1023.22 1022.98 1022.23 1021.56 1021.60 1021.52 1021.17 1020.28 1019.00 1017.46 1015.14 1014.98 1014.81 1014.76 1014.83 1014.89 1014.96 1014.66 1014.53 1014.29 1014.43 1014.69 1014.82 1014.88 1015.06 1015.49 1015.92 1016.30 1016.89 1017.38 1017.73 1018.02 1018.29 1018.55 1018.74 1018.89 1019.00 1019.00 1018.88 1018.69 1018.48 1018.29 1018.13
1024.34 1023.34 1022.45 1020.88 1018.83 1019.23 1019.21 1018.75 1018.38 1018.11 1015.31 1014.31 1014.27 1014.16 1013.99 1013.75 1013.85 1013.81 1013.66 1013.56 1013.51 1013.51 1013.59 1013.65 1013.67 1013.84 1014.41 1014.65 1015.21 1016.04 1016.69 1017.16 1017.55 1017.87 1018.19 1018.40 1018.62 1018.81 1018.88 1018.83 1018.70 1018.56 1018.41 1018.22
1025.04 1023.65 1021.43 1017.90 1017.20 1017.13 1017.38 1016.69 1016.44 1015.70 1014.76 1014.28 1013.96 1013.58 1013.25 1013.04 1012.98 1013.05 1013.05 1012.83 1012.67 1012.65 1012.70 1012.70 1012.80 1013.13 1013.38 1014.02 1014.72 1015.42 1016.11 1016.65 1017.15 1017.55 1017.85 1018.14 1018.36 1018.49 1018.65 1018.64 1018.68 1018.62 1018.45 1018.22
1025.15 1024.23 1020.44 1017.08 1016.52 1016.60 1016.80 1015.34 1014.48 1015.00 1014.49 1013.94 1013.82 1013.74 1012.52 1012.06 1012.06 1012.13 1012.16 1012.11 1012.06 1012.00 1012.12 1012.13 1012.28 1012.41 1013.11 1013.79 1014.22 1014.99 1015.71 1016.34 1016.73 1017.11 1017.53 1017.77 1018.02 1018.24 1018.33 1018.50 1018.57 1018.50 1018.38 1018.21
1025.36 1024.21 1021.14 1017.14 1016.21 1015.88 1015.85 1014.85 1013.63 1014.12 1014.10 1013.99 1013.87 1013.98 1012.58 1011.82 1011.81 1011.89 1011.86 1011.80 1011.72 1011.74 1011.90 1012.08 1011.82 1012.30 1012.84 1013.27 1013.87 1014.50 1015.01 1015.67 1016.31 1016.84 1017.27 1017.54 1017.78 1018.00 1018.06 1018.13 1018.16 1018.19 1018.14 1018.04
1024.64 1023.67 1019.81 1016.69 1016.22 1015.82 1015.70 1014.73 1013.73 1013.93 1013.78 1013.79 1013.86 1013.06 1012.04 1011.79 1011.69 1011.45 1011.45 1011.46 1011.40 1011.56 1011.75 1011.73 1011.86 1012.24 1012.59 1013.07 1013.56 1013.97 1014.81 1015.46 1016.06 1016.46 1016.87 1017.22 1017.59 1017.73 1017.78 1017.88 1017.94 1018.08 1017.89 1017.74
1023.78 1022.80 1019.05 1016.22 1016.29 1015.95 1014.41 1013.70 1013.57 1013.52 1013.37 1013.27 1012.74 1012.29 1012.02 1011.69 1011.61 1011.45 1011.36 1011.24 1011.27 1011.45 1011.48 1011.55 1011.93 1012.33 1012.54 1012.88 1012.98 1013.64 1014.60 1015.42 1016.04 1016.30 1016.54 1016.83 1017.22 1017.47 1017.60 1017.80 1017.75 1017.78 1017.82 1017.56
1020.74 1018.19 1015.92 1015.70 1014.99 1014.40 1014.40 1014.28 1013.73 1013.43 1012.94 1012.80 1012.50 1012.08 1011.51 1011.37 1011.27 1011.12 1011.06 1010.98 1011.04 1011.23 1011.34 1011.47 1011.66 1011.96 1012.46 1012.60 1013.07 1013.88 1014.60 1015.26 1015.73 1016.16 1016.47 1016.70 1017.00 1017.21 1017.47 1017.59 1017.56 1017.45 1017.42 1017.28
1019.34 1015.75 1015.67 1015.24 1014.57 1014.51 1014.09 1014.03 1013.39 1013.04 1012.70 1012.35 1012.21 1011.54 1011.40 1011.18 1010.99 1010.94 1010.94 1011.03 1011.03 1011.33 1011.44 1011.46 1011.57 1011.87 1012.06 1012.65 1013.16 1013.69 1014.32 1015.14 1015.75 1015.98 1016.30 1016.49 1016.57 1016.69 1016.92 1017.12 1017.21 1017.09 1016.94 1016.88
1017.81 1016.15 1015.17 1014.33 1014.42 1014.32 1014.03 1013.59 1013.13 1012.59 1012.09 1011.79 1011.50 1011.13 1010.74 1010.58 1010.35 1010.27 1010.22 1010.38 1010.64 1010.81 1010.89 1010.88 1011.16 1011.47 1011.84 1012.49 1013.11 1013.69 1014.10 1014.46 1015.04 1015.71 1015.95 1016.11 1016.17 1016.27 1016.41 1016.43 1016.56 1016.41 1016.30 1016.27
1017.16 1016.32 1016.38 1015.72 1014.77 1014.14 1013.98 1013.31 1012.73 1012.39 1011.73 1011.26 1011.07 1010.71 1010.47 1010.35 1010.16 1010.12 1010.06 1010.19 1010.39 1010.42 1010.66 1010.56 1010.68 1011.32 1011.71 1012.22 1012.87 1013.51 1014.21 1014.48 1014.45 1014.96 1015.74 1015.85 1015.87 1015.97 1015.89 1015.79 1015.76 1015.72 1015.59 1015.47
1016.98 1016.53 1016.47 1015.35 1014.83 1014.33 1013.96 1013.35 1012.73 1012.25 1011.58 1011.20 1010.62 1010.51 1010.45 1010.40 1010.07 1010.02 1010.02 1009.94 1009.90 1009.92 1009.96 1010.20 1010.50 1010.95 1011.33 1011.74 1012.59 1013.30 1013.76 1014.24 1014.73 1014.64 1015.04 1015.71 1015.66 1015.76 1015.81 1015.66 1015.55 1015.47 1015.29 1015.07
1016.74 1016.98 1016.24 1015.03 1014.78 1013.98 1013.83 1013.46 1012.84 1012.16 1011.59 1011.17 1010.98 1010.83 1010.80 1010.63 1010.25 1010.16 1010.05 1009.70 1009.45 1009.34 1009.33 1009.64 1010.13 1010.45 1010.80 1011.44 1012.18 1012.72 1013.14 1013.69 1014.29 1014.45 1014.56 1015.30 1015.27 1015.39 1015.58 1015.69 1015.61 1015.47 1015.17 1014.90
1016.71 1016.90 1016.77 1015.98 1015.12 1014.25 1013.74 1013.38 1012.81 1012.20 1011.62 1011.20 1010.88 1010.95 1010.71 1010.51 1010.19 1009.79 1009.48 1009.26 1009.11 1009.08 1009.24 1009.39 1009.77 1010.20 1010.49 1011.08 1011.30 1012.12 1012.75 1013.18 1013.66 1014.06 1014.08 1014.85 1014.92 1014.99 1015.15 1015.23 1015.20 1015.11 1014.96 1014.61
1016.78 1016.56 1016.02 1015.90 1015.40 1014.82 1014.08 1013.31 1012.95 1012.28 1011.87 1011.46 1011.23 1010.82 1010.50 1010.21 1009.81 1009.46 1009.21 1009.05 1009.09 1008.92 1009.00 1009.36 1009.57 1009.76 1010.28 1010.79 1011.04 1011.67 1012.18 1012.62 1013.16 1013.61 1013.79 1014.42 1014.43 1014.51 1014.63 1014.77 1014.77 1014.71 1014.54 1014.24
1017.40 1016.59 1015.97 1015.52 1014.92 1014.45 1014.04 1013.44 1013.14 1012.64 1011.97 1011.32 1010.68 1010.29 1010.05 1009.96 1009.81 1009.47 1009.14 1008.90 1008.96 1008.71 1008.50 1008.69 1008.94 1009.41 1009.89 1010.20 1010.56 1011.21 1011.64 1012.16 1012.56 1012.98 1013.34 1013.81 1013.97 1014.04 1014.12 1014.31 1014.36 1014.29 1014.12 1013.83
1017.36 1016.96 1016.47 1016.21 1015.48 1014.66 1013.49 1012.68 1012.22 1011.75 1011.31 1010.75 1010.45 1010.13 1009.72 1009.58 1009.16 1008.77 1008.44 1008.24 1008.40 1008.23 1007.78 1007.59 1007.91 1008.54 1008.91 1009.57 1010.00 1010.62 1010.99 1011.41 1011.98 1012.29 1012.70 1013.17 1013.44 1013.49 1013.59 1013.73 1013.83 1013.84 1013.70 1013.47
1016.51 1016.05 1015.31 1014.86 1014.78 1014.51 1013.82 1012.86 1011.96 1011.27 1010.74 1010.20 1009.96 1009.45 1009.11 1008.57 1008.05 1008.00 1007.87 1007.72 1007.61 1007.34 1006.63 1007.32 1007.64 1007.83 1008.18 1008.53 1009.28 1010.07 1010.50 1010.78 1011.31 1011.62 1012.10 1012.49 1012.82 1012.87 1013.06 1013.25 1013.35 1013.34 1013.25 1013.10
1015.90 1015.28 1014.60 1014.17 1013.91 1013.63 1012.85 1012.06 1011.38 1010.89 1010.30 1009.88 1009.49 1009.00 1008.44 1007.61 1007.46 1007.40 1006.95 1006.50 1006.19 1006.19 1006.12 1006.42 1007.05 1007.40 1007.35 1007.85 1008.35 1009.39 1009.86 1010.35 1010.54 1010.89 1011.45 1011.80 1012.14 1012.32 1012.47 1012.62 1012.74 1012.81 1012.78 1012.71
1015.30 1014.56 1014.14 1013.63 1012.86 1012.53 1011.96 1011.14 1010.65 1010.06 1009.42 1009.20 1008.90 1008.29 1007.56 1006.72 1006.49 1006.31 1006.34 1006.11 1004.46 1005.26 1005.29 1005.34 1005.58 1006.42 1006.73 1006.85 1007.63 1008.25 1009.02 1009.66 1010.00 1010.34 1010.67 1010.95 1011.37 1011.61 1011.90 1012.12 1012.26 1012.36 1012.33 1012.26
1014.05 1013.66 1012.94 1012.52 1011.98 1011.13 1010.64 1010.02 1009.55 1009.05 1008.60 1008.07 1007.48 1006.92 1006.62 1005.98 1005.50 1005.20 1004.72 1004.41 1003.73 1004.36 1004.86 1004.82 1004.81 1005.01 1005.77 1005.99 1006.68 1007.08 1007.89 1008.75 1009.18 1009.57 1009.92 1010.30 1010.67 1011.02 1011.32 1011.57 1011.72 1011.86 1011.90 1011.86
1012.88 1012.74 1012.05 1011.65 1011.04 1010.07 1009.46 1009.13 1008.70 1008.12 1007.41 1006.73 1006.32 1005.92 1005.57 1004.89 1004.56 1004.56 1003.72 1002.60 1002.90 1003.09 1003.45 1003.64 1003.54 1004.23 1004.85 1005.27 1005.29 1005.99 1006.91 1007.68 1008.14 1008.59 1008.98 1009.43 1009.85 1010.30 1010.70 1010.99 1011.16 1011.36 1011.44 1011.45
1011.90 1011.53 1011.03 1010.29 1009.74 1009.34 1008.62 1007.65 1007.26 1006.65 1006.12 1005.48 1005.20 1004.79 1004.52 1004.11 1003.32 1002.84 1002.31 1002.04 1001.97 1002.03 1002.03 1002.23 1002.50 1002.89 1003.75 1004.54 1004.97 1005.30 1006.01 1006.57 1007.15 1007.60 1008.05 1008.62 1009.10 1009.59 1010.07 1010.38 1010.65 1010.86 1010.96 1010.99
1010.96 1010.42 1009.83 1009.30 1008.75 1007.88 1007.18 1006.52 1005.98 1005.37 1004.92 1004.43 1004.03 1003.57 1003.16 1003.01 1002.90 1001.51 1001.41 1001.35 1001.33 1001.26 1001.02 1001.05 1001.58 1002.04 1002.61 1003.49 1004.24 1004.72 1005.50 1005.89 1006.27 1006.73 1007.22 1007.80 1008.34 1008.88 1009.39 1009.78 1010.08 1010.32 1010.40 1010.49
1009.71 1009.13 1008.37 1007.87 1007.26 1006.47 1005.92 1005.52 1005.02 1004.29 1003.93 1003.29 1002.65 1002.33 1001.96 1001.72 1001.46 1001.20 1000.99 1000.92 1000.85 1000.69 1000.53 1000.60 1000.73 1001.15 1001.68 1002.32 1003.23 1003.83 1004.64 1005.13 1005.52 1005.88 1006.47 1007.04 1007.66 1008.24 1008.72 1009.12 1009.50 1009.71 1009.81 1010.01
1008.19 1007.66 1007.11 1006.30 1005.61 1005.27 1004.71 1004.46 1004.05 1003.29 1002.83 1002.32 1001.68 1001.16 1001.01 1000.77 1000.52 1000.38 1000.19 1000.06 1000.01 999.94 999.90 999.91 1000.06 1000.36 1000.88 1001.35 1002.24 1002.82 1003.57 1004.16 1004.60 1005.08 1005.70 1006.39 1007.00 1007.53 1008.04 1008.51 1008.91 1009.18 1009.35 1009.56
Wind_Speed
7 10 8 14 12 9 14 18 11 14 13 26 15 9 9 10 9 9 10 9 9 11 11 11 10 9 8 7 7 6 6 6 6 4 3 2 0 2 3 4 4 3 4 5
6 9 6 11 14 16 18 19 19 24 29 28 24 18 10 11 9 10 10 9 9 9 9 11 13 12 10 9 10 7 7 7 6 5 4 3 1 2 2 3 4 4 5 4
7 4 8 8 8 13 6 6 11 14 20 17 15 13 12 11 9 10 10 9 9 9 10 11 12 12 12 11 8 9 7 6 6 6 5 3 1 0 1 2 2 4 5 5
6 7 3 6 6 8 13 8 16 10 12 15 15 11 9 8 7 9 8 9 8 7 7 8 8 8 8 8 9 9 7 7 6 6 5 3 2 1 2 1 2 3 4 5
1 2 12 8 1 5 5 9 9 18 16 10 7 6 11 11 9 10 7 6 7 6 6 6 8 8 8 7 8 8 8 7 6 6 5 5 4 3 2 1 2 2 3 5
1 1 6 4 1 1 2 7 3 7 8 5 2 4 7 5 5 9 8 6 7 6 4 5 6 6 8 9 10 10 8 7 7 6 6 5 5 4 2 2 3 3 4 3
6 5 12 8 5 1 3 6 1 4 8 4 5 8 5 4 6 6 7 8 6 6 7 7 4 6 7 8 11 7 7 7 6 6 6 5 4 3 2 2 3 3 4 4
4 5 12 6 5 7 6 3 3 5 6 8 10 10 9 9 8 9 9 7 7 6 7 4 5 6 7 9 6 7 7 7 6 6 4 4 5 3 2 2 3 4 4 4
12 11 4 6 6 6 3 5 9 9 15 10 10 8 11 9 9 9 9 7 5 7 7 5 6 7 7 6 7 7 7 7 6 5 5 5 5 4 3 3 3 3 3 3
0 7 15 12 11 10 13 13 15 14 14 13 14 14 9 11 10 7 6 7 4 5 7 7 7 7 5 6 7 8 8 7 5 5 5 5 3 3 3 3 3 3 3 3
8 15 9 7 4 6 8 11 11 12 11 11 10 14 12 10 9 7 7 5 4 7 7 9 7 7 6 7 8 7 6 6 6 4 5 4 4 4 3 4 5 3 4 3
8 4 5 13 19 19 17 17 11 12 15 15 9 11 8 8 7 5 6 4 5 7 7 8 7 7 7 7 8 8 6 5 5 5 4 4 3 3 6 9 10 10 10 7
5 9 12 18 17 11 7 19 19 16 12 12 12 5 5 5 4 7 7 7 7 8 8 6 7 7 7 8 8 7 6 5 4 5 4 4 3 3 3 3 7 9 9 10
8 5 9 7 13 20 17 16 16 13 9 8 6 5 4 6 6 6 8 8 8 7 6 7 7 8 8 8 8 7 6 10 5 4 4 4 4 4 3 3 3 3 6 8
8 5 9 14 16 14 9 8 10 9 7 8 4 6 6 8 8 8 7 6 5 4 5 6 6 7 8 9 10 8 6 5 5 4 4 5 4 4 3 4 4 4 3 5
14 11 10 7 11 9 8 9 6 8 6 6 7 8 8 7 7 7 6 4 3 4 4 5 6 5 7 8 8 6 6 10 9 5 4 5 4 4 4 4 3 3 3 4
5 15 17 18 14 12 9 9 8 9 9 8 9 7 7 7 7 7 7 4 5 6 5 6 7 6 8 9 9 6 5 5 11 6 5 5 5 5 4 4 4 4 4 5
6 9 9 11 10 14 17 14 10 10 9 8 8 8 7 5 8 7 7 5 5 7 8 8 7 8 8 9 8 6 6 6 5 5 5 5 5 4 4 4 4 4 4 4
7 8 10 11 11 11 12 14 13 9 12 8 8 10 9 9 8 8 5 5 8 7 10 7 11 11 9 11 10 6 6 7 7 5 5 8 6 4 4 4 4 4 4 3
9 8 8 9 11 8 14 13 12 11 13 8 9 9 11 13 9 8 7 11 12 8 5 7 9 8 9 10 16 6 7 7 7 6 6 5 5 5 4 7 5 4 4 3
10 9 10 11 14 13 11 12 12 13 13 8 9 14 13 13 8 8 6 8 14 11 11 12 9 7 7 9 11 8 7 7 7 7 7 6 6 5 5 4 4 4 4 3
8 8 11 9 12 17 14 13 12 13 14 14 13 12 11 13 11 10 12 14 7 11 6 7 7 13 9 18 8 8 8 9 8 6 6 6 6 5 5 5 5 4 4 3
16 13 14 15 17 18 17 15 14 16 16 14 13 13 11 11 8 6 11 9 11 12 8 7 13 17 20 11 9 9 10 10 9 8 7 7 6 5 5 5 4 4 4 3
17 16 16 15 14 12 16 18 15 15 14 14 13 13 11 9 10 8 11 16 14 14 12 10 14 19 19 7 7 9 9 9 9 8 7 11 6 5 5 5 4 4 3 5
15 17 17 15 14 14 16 15 12 10 11 12 11 11 12 8 10 9 5 8 16 12 8 16 21 19 10 9 9 9 8 8 8 7 7 7 6 6 5 5 5 4 4 3
15 13 14 17 15 14 13 11 11 11 9 10 10 8 8 7 8 10 8 9 7 12 9 7 9 11 10 10 10 10 9 8 9 8 8 7 6 6 5 5 5 4 2 3
15 20 13 13 12 11 10 9 10 11 11 9 11 10 8 7 7 9 11 5 7 7 7 6 8 12 10 10 10 10 8 8 10 7 7 6 6 5 5 5 4 4 3 3
Wind_Direction
258 259 246 247 241 212 212 224 216 266 251 277 277 260 256 246 248 253 266 257 237 234 227 220 221 221 215 213 205 204 211 210 217 204 191 193 323 359 359 12 6 1 356 347
271 262 254 261 247 235 240 245 255 264 273 272 275 284 274 255 248 261 260 261 251 232 227 223 222 219 211 213 206 182 200 212 204 191 193 193 124 19 11 358 355 352 347 339
272 311 302 290 241 205 202 209 210 229 242 272 271 257 256 259 228 238 246 255 259 241 224 223 221 214 208 206 176 182 192 200 198 194 197 177 144 86 346 325 322 329 331 335
275 333 312 247 218 183 207 232 212 248 265 268 266 272 257 242 231 249 244 258 257 250 248 235 224 207 206 171 179 179 182 192 193 188 186 178 189 230 292 288 323 314 308 314
269 245 292 303 206 132 170 283 216 227 256 274 290 298 287 228 216 226 232 244 249 244 248 263 228 202 180 171 169 164 184 192 188 179 183 189 215 231 225 233 289 297 301 312
117 283 261 256 292 115 132 289 207 195 249 277 62 343 270 280 214 236 242 245 253 261 261 261 262 176 169 175 169 185 180 184 177 175 183 199 208 207 222 215 262 292 299 298
222 264 279 251 202 355 42 257 129 202 249 228 208 221 245 263 251 232 226 248 253 256 255 264 213 170 183 160 191 175 153 162 165 172 181 192 189 190 206 244 286 298 295 301
156 224 272 156 78 173 228 293 274 267 257 254 244 270 256 257 258 253 248 263 254 250 254 257 198 175 178 195 152 149 151 158 171 178 186 171 181 205 225 239 263 286 293 296
190 218 225 206 244 258 290 281 287 279 288 256 268 260 261 260 257 251 249 253 244 232 252 240 204 187 187 186 150 150 151 168 177 176 185 182 186 202 221 215 243 275 275 285
282 257 253 273 257 261 276 269 282 285 274 277 266 269 264 278 272 255 258 255 241 237 242 243 210 205 194 159 153 152 162 175 179 178 194 198 201 195 207 225 249 250 266 275
263 287 298 283 326 296 292 290 283 281 267 261 265 266 261 269 265 253 247 251 227 230 232 236 191 199 175 167 160 169 167 167 177 192 207 195 206 208 215 220 209 236 244 241
226 274 232 304 304 304 299 296 301 292 298 294 259 256 269 266 263 259 271 271 260 248 240 234 192 190 173 163 167 165 176 184 185 176 197 203 198 245 254 251 265 270 286 286
272 316 296 286 286 289 297 307 305 299 287 280 284 257 278 276 287 290 281 274 261 254 241 211 191 185 173 165 162 175 182 178 202 188 176 203 203 209 239 291 278 276 285 291
290 342 306 295 302 309 305 299 297 286 282 285 298 314 293 291 302 288 277 269 270 259 228 196 184 195 171 162 168 178 178 199 187 191 175 202 205 206 205 225 241 265 275 289
292 243 250 280 297 303 302 304 308 313 312 315 300 289 302 291 282 278 277 279 270 238 221 186 183 202 166 171 173 180 180 187 180 193 168 208 207 206 214 229 236 249 255 280
310 302 293 280 282 289 297 315 323 305 302 300 303 301 290 280 274 277 286 274 229 252 222 205 211 198 169 171 169 175 186 199 192 191 181 209 207 211 219 231 243 257 269 274
322 346 339 328 328 323 303 287 266 279 292 281 273 282 292 293 295 290 288 264 244 242 216 201 216 173 180 178 177 183 180 191 205 193 192 205 208 210 213 218 234 242 252 266
234 253 250 246 280 306 312 311 299 287 282 276 290 288 281 264 258 269 263 245 240 249 228 208 188 186 175 180 180 176 183 181 195 198 188 198 212 212 214 222 229 239 250 262
244 276 318 319 299 282 280 290 296 281 290 273 284 279 268 260 248 249 247 244 242 240 249 202 210 190 182 184 182 181 188 182 187 189 194 214 228 206 206 217 233 236 244 249
284 294 300 295 300 278 293 289 288 290 287 281 271 274 272 265 253 254 225 236 228 234 177 187 192 204 190 191 193 180 188 193 192 190 191 200 209 215 217 235 243 237 240 234
272 280 285 287 295 293 277 284 279 279 285 271 263 273 271 275 249 222 228 255 259 224 217 191 184 196 199 177 196 176 185 192 195 195 196 207 204 208 210 221 232 236 242 236
263 275 293 277 283 294 294 288 287 288 285 276 270 262 264 268 263 244 229 233 248 208 203 209 201 202 200 190 183 180 182 194 197 193 194 195 199 203 212 217 225 230 235 233
306 291 295 295 292 289 291 284 279 278 279 275 272 271 259 261 259 234 264 230 226 219 199 207 205 217 212 202 178 182 189 193 195 196 196 192 193 198 206 211 217 220 222 225
288 292 290 285 285 281 281 286 278 272 270 271 268 265 266 277 272 236 251 257 236 218 214 209 212 208 210 204 196 184 191 191 195 193 189 195 187 188 197 206 217 217 215 263
280 287 287 287 281 281 282 277 276 273 268 270 264 264 258 244 235 271 232 239 239 227 217 215 214 209 195 199 198 184 191 191 192 185 183 185 181 187 197 199 209 211 218 217
282 277 282 283 275 278 277 281 275 279 278 279 277 265 258 243 241 253 259 245 233 236 229 214 203 198 192 188 189 179 184 188 197 190 183 180 180 185 190 194 203 215 199 212
280 279 284 282 277 275 270 260 268 273 275 270 274 281 266 256 238 247 248 223 229 227 227 205 202 196 191 184 186 178 181 183 187 179 174 175 176 180 182 187 198 200 202 221